Location: �terpigny
(49.8910°N, 2.9249°E)
Time: 04:08:15
(UTC+00:00)

Cosmos 332 Rocket - Pass Details

Date: 01 June 2022
Orbit: 681 x 703 km, 74.0° (Epoch: 05 July)

Event Time Altitude Azimuth Distance (km) Brightness Sun altitude
Exits shadow 01:10:14 15° 248° (WSW) 1,829 5.6 -15.7°
Maximum altitude 01:13:36 32° 305° (NW) 1,179 5.1 -15.5°
Drops below altitude 10° 01:17:54 10° 8° (N) 2,137 7.6 -15.2°
Sets 01:20:27 0° 19° (NNE) 3,058 9.0 -15.1°
